"Pseudo-MPEC" for C026JV2

Created 2019 Jan 12 1:18:08 UT using Find_Orb

Click here for an explanation of pseudo-MPECs

 
 Astrometry: 
     C026JV2  C2018 12 16y2jG78-9:p#$N5BU+ZLFiaAstrometry_cT#(m+:*4*QKv8?k.voF51
     C026JV2  C2018 12 16=nZWh`\1bPoP4V08OU!KJ8]o^Ttqi6NF%.`;skhS%BciZ8E5cIM?F51
     C026JV2  C2018 12 16X.]7pwRiC1-SpFgbEW%H^AJ45lredacted;HKJ0.b`:o`8Gn3=nUF51
     C026JV2  C2018 12 22d]tSrf!x72`S8Fmb,_B-.0J?)p+h2U,oP_B;t-'Z`s'.5gGXuUByF51
     C026JV2  C2018 12 22:G1cwK+nf%!G:@A$0bKh]'07_qtgcy[d0Db[*0!ce#'wx+-aWOx8F51
     C026JV2  C2018 12 22MbS7swS.[cdEO@V=!JMclicky:e8P94OggOt7^Uy3v!C9V9rfq3QF51
     C026JV2  C2018 12 22fH];gW-Aob@\^AZRxsJJ:A]E+T9LeNhQw%G6T_,p%B/;RPe#j`:5F51
     C026JV2  C2019 01 09.30794 07 39 43.26 +46 38 13.0    ~198I 21.6 GVNEOCPG96
     C026JV2  C2019 01 09.31320 07 39 42.70 +46 38 18.3    ~198I 22.0 GVNEOCPG96
     C026JV2  C2019 01 09.31850 07 39 42.12 +46 38 23.6    ~198I 21.6 GVNEOCPG96
     C026JV2  C2019 01 09.32388 07 39 41.42 +46 38 30.5    ~198I 21.4 GVNEOCPG96
     C026JV2  C2019 01 09:?.?fL/te;kj8TD:owjZT4tHJ@=,l+c,Kq%kw5fhereb*1,BeQ]4V06
     C026JV2  C2019 01 09^@cVLUajbf;AX9VxUa/b]NmtbO0erRI8oYKu.gaJbs=?qrZZZ=b'V06
     C026JV2  C2019 01 09fAEXjXv;S+\o/EhL:DRNYok:aoq/^luYk-IJ*?#iULxToJL/H$7[V06
     C026JV2  C2019 01 09Ej9tI+(LU2k2U!_SU.W(=Y,.;4kkforJw8IgQCj6%kkbXFcqyr%0V06
     C026JV2 KC2019 01 11OOPyLh9sF]0%Uqb3=%^qQc',9KGx0vM`PT(RGVR+fX+AOG/Fm=W1H21
     C026JV2 KC2019 01 11';PAk*$wQZ*6uukv*kR/4cTwg$j_W@[H$_y/s)FsEAnjS\@+k.HyH21
     C026JV2 KC2019 01 11YSx[W]4g03)=.Q.L*DGiiUkh;[EqnbPexplanationH`e%wF-Y65H21

Station data:
(F51) Pan-STARRS 1, Haleakala  (N20.707235 W156.255910)  US/Hawaii.
   Observers N. Primak, A. Schultz, S. Watters, J. Thiel, T. Goggia. Measurer
   PS1 Science Consortium. 1.8-m Ritchey-Chrétien + CCD.
(G96) Mt. Lemmon Survey  (N32.442754 W110.788720)  US/Arizona.  Observers B.
   M. Africano, E. J. Christensen, G. A. Farneth, D. C. Fuls, A. R. Gibbs, A.
   D. Grauer, H. Groeller, J. A. Johnson, R. A. Kowalski, S. M. Larson, G. J.
   Leonard, R. L. Seaman, F. C. Shelly. 1.5-m reflector + 10K CCD.
(H21) Astronomical Research Observatory, Westfield  (N39.483057 W87.968270)
   US/Illinois. 0.76-m f/3.0 astrograph + CCD.
(V06) Catalina Sky Survey-Kuiper  (N32.416847 W110.732550)  US/Arizona.
   Observers B. M. Africano, E. J. Christensen, G. A. Farneth, D. C. Fuls, A.
   R. Gibbs, A. D. Grauer, H. Groeller, J. A. Johnson, R. A. Kowalski, S. M.
   Larson, G. J. Leonard, R. L. Seaman, F. C. Shelly. 1.55-m reflector + CCD.

Orbital elements:  C026JV2
   Perihelion 2018 Apr 3.602541 +/- 0.415 TT = 14:27:39 (JD 2458212.102541)
Epoch 2019 Jan 11.0 TT = JDT 2458494.5   Earth MOID: 0.8928   AutoNEOCP
M 105.75471647 +/- 0.15             (J2000 ecliptic)
n   0.37448890 +/- 8.58e-5          Peri.  282.87674 +/- 0.14
a   1.90623632 +/- 0.000291         Node    78.43548 +/- 0.008
e   0.0398293 +/- 0.000135          Incl.   23.75995 +/- 0.009
P   2.63/961.29d           H 19.6   G  0.15   U  6.5  
q 1.83031210 +/- 0.00027    Q 1.98216055 +/- 0.000486
From 18 observations 2018 Dec. 16-2019 Jan. 11; mean residual 0".33
Residuals in arcseconds: 
181216 F51  .13-  .05+    181222 F51  .04+  .21+    190109 V06  .17+  .09-    
181216 F51  .04-  .16-    190109 G96  .17-  .06-    190109 V06  .26+  .11+    
181216 F51  .08-  .01+    190109 G96  .11-  .41-    190109 V06  .24+  .05-    
181222 F51  .10+  .11+    190109 G96  .21-  .78-    190111 H21  .37+  .25+    
181222 F51  .24+  .12-    190109 G96  1.4-  .36+    190111 H21  .12+  .20+    
181222 F51  .11+  .05+    190109 V06  .09+  .03-    190111 H21  .36+  .27+    

Ephemerides (geocentric):
Date (UTC) HH   RA              Dec         delta   r     elong  mag " sig PA
---- -- -- --  -------------   -----------  ------ ------ -----  --- ---- ---
2019 01 12 01  07 34 57.389   +47 24 52.95  0.9961 1.9301 154.3 21.8 .148  37
2019 01 12 02  07 34 52.981   +47 25 33.74  0.9962 1.9301 154.3 21.8 .150  37
2019 01 12 03  07 34 48.572   +47 26 14.47  0.9962 1.9301 154.3 21.8 .153  37
2019 01 12 04  07 34 44.162   +47 26 55.14  0.9963 1.9301 154.3 21.8 .156  37
2019 01 12 05  07 34 39.751   +47 27 35.75  0.9964 1.9302 154.3 21.8 .159  37
2019 01 12 06  07 34 35.339   +47 28 16.30  0.9965 1.9302 154.3 21.8 .162  36
2019 01 12 07  07 34 30.925   +47 28 56.80  0.9966 1.9302 154.2 21.8 .165  36
2019 01 12 08  07 34 26.510   +47 29 37.23  0.9967 1.9302 154.2 21.8 .168  36
2019 01 12 09  07 34 22.095   +47 30 17.60  0.9968 1.9302 154.2 21.8 .171  36
2019 01 12 10  07 34 17.678   +47 30 57.92  0.9968 1.9303 154.2 21.8 .174  36
2019 01 12 11  07 34 13.260   +47 31 38.17  0.9969 1.9303 154.2 21.8 .177  36
2019 01 12 12  07 34 08.841   +47 32 18.37  0.9970 1.9303 154.1 21.8 .180  36
2019 01 12 13  07 34 04.421   +47 32 58.51  0.9971 1.9303 154.1 21.8 .183  36
2019 01 12 14  07 33 59.999   +47 33 38.58  0.9972 1.9303 154.1 21.8 .186  36
2019 01 12 15  07 33 55.577   +47 34 18.60  0.9973 1.9304 154.1 21.8 .189  35
2019 01 12 16  07 33 51.154   +47 34 58.56  0.9974 1.9304 154.1 21.8 .192  35
2019 01 12 17  07 33 46.730   +47 35 38.46  0.9975 1.9304 154.1 21.8 .195  35
2019 01 12 18  07 33 42.305   +47 36 18.30  0.9976 1.9304 154.0 21.8 .198  35
2019 01 12 19  07 33 37.879   +47 36 58.07  0.9977 1.9304 154.0 21.8 .201  35
2019 01 12 20  07 33 33.451   +47 37 37.79  0.9977 1.9305 154.0 21.8 .204  35
2019 01 12 21  07 33 29.023   +47 38 17.45  0.9978 1.9305 154.0 21.8 .207  35
2019 01 12 22  07 33 24.595   +47 38 57.05  0.9979 1.9305 154.0 21.8 .211  35
2019 01 12 23  07 33 20.165   +47 39 36.59  0.9980 1.9305 153.9 21.8 .214  35
2019 01 13 00  07 33 15.734   +47 40 16.07  0.9981 1.9305 153.9 21.8 .217  35
2019 01 13 01  07 33 11.303   +47 40 55.49  0.9982 1.9306 153.9 21.8 .220  34
2019 01 13 02  07 33 06.870   +47 41 34.85  0.9983 1.9306 153.9 21.8 .223  34
2019 01 13 03  07 33 02.437   +47 42 14.15  0.9984 1.9306 153.9 21.8 .226  34
2019 01 13 04  07 32 58.003   +47 42 53.39  0.9985 1.9306 153.8 21.8 .229  34
2019 01 13 05  07 32 53.568   +47 43 32.56  0.9986 1.9306 153.8 21.8 .232  34
2019 01 13 06  07 32 49.132   +47 44 11.68  0.9987 1.9306 153.8 21.8 .236  34
2019 01 13 07  07 32 44.696   +47 44 50.74  0.9988 1.9307 153.8 21.8 .239  34
2019 01 13 08  07 32 40.259   +47 45 29.74  0.9989 1.9307 153.8 21.8 .242  34
2019 01 13 09  07 32 35.821   +47 46 08.68  0.9990 1.9307 153.8 21.8 .245  34
2019 01 13 10  07 32 31.382   +47 46 47.55  0.9991 1.9307 153.7 21.8 .248  34
2019 01 13 11  07 32 26.943   +47 47 26.37  0.9992 1.9307 153.7 21.8 .251  33
2019 01 13 12  07 32 22.503   +47 48 05.13  0.9993 1.9308 153.7 21.8 .255  33
2019 01 13 13  07 32 18.062   +47 48 43.82  0.9994 1.9308 153.7 21.8 .258  33
2019 01 13 14  07 32 13.621   +47 49 22.46  0.9995 1.9308 153.7 21.8 .261  33
2019 01 13 15  07 32 09.179   +47 50 01.03  0.9996 1.9308 153.6 21.8 .264  33
2019 01 13 16  07 32 04.736   +47 50 39.54  0.9997 1.9308 153.6 21.8 .267  33
2019 01 13 17  07 32 00.293   +47 51 18.00  0.9998 1.9309 153.6 21.8 .271  33
2019 01 13 18  07 31 55.849   +47 51 56.39  0.9999 1.9309 153.6 21.8 .274  33
2019 01 13 19  07 31 51.404   +47 52 34.72  1.0000 1.9309 153.5 21.8 .277  33
2019 01 13 20  07 31 46.959   +47 53 12.99  1.0001 1.9309 153.5 21.8 .281  33
2019 01 13 21  07 31 42.513   +47 53 51.20  1.0002 1.9309 153.5 21.8 .284  33
2019 01 13 22  07 31 38.067   +47 54 29.35  1.0003 1.9310 153.5 21.8 .287  32
2019 01 13 23  07 31 33.621   +47 55 07.44  1.0004 1.9310 153.5 21.8 .290  32
2019 01 14 00  07 31 29.173   +47 55 45.46  1.0005 1.9310 153.4 21.8 .294  32